Temp
83 94 101 97 82 85 81 87 97 91 92 98 98 95 94 97 89 81 102 103 102 104 95 87 80 81 81 81 81 80 80 79 79 79 79 79 80 80 80 80 80 81 82 82 82 82 82 81 81
94 97 97 92 79 77 83 93 91 93 96 97 97 97 95 90 96 98 100 102 102 102 95 94 80 80 81 81 80 80 79 79 79 79 80 80 80 80 80 80 80 81 82 82 82 82 82 81 81
89 98 89 86 81 77 82 94 95 96 95 94 93 97 95 89 96 96 102 103 103 99 95 92 80 80 81 80 80 79 79 79 79 79 80 80 79 79 79 80 80 81 82 82 82 81 81 81 80
94 94 90 79 79 88 89 93 92 90 94 96 95 90 95 97 95 99 103 103 102 101 96 82 80 80 80 80 80 79 79 79 79 79 80 79 79 79 79 79 80 81 81 82 81 81 80 80 80
94 91 80 79 80 88 91 91 89 89 92 93 94 90 91 97 100 102 102 104 102 103 92 90 80 80 80 80 80 79 79 79 79 79 79 79 79 79 79 79 80 81 81 81 80 80 80 79 79
86 89 76 76 82 90 92 90 88 89 92 93 90 91 92 101 99 102 103 103 106 104 91 89 81 79 79 79 79 79 79 79 79 79 79 79 78 79 79 79 80 81 81 80 80 80 79 79 79
81 83 77 80 82 86 89 91 86 88 90 90 95 84 96 98 99 102 103 103 101 101 96 92 91 85 79 79 79 78 78 78 78 78 78 78 78 78 79 79 79 80 80 79 80 79 79 79 79
86 84 76 81 79 81 90 85 88 85 86 97 92 84 89 95 98 103 102 102 98 99 95 94 92 91 90 87 78 78 78 78 78 78 78 78 78 78 79 78 79 79 79 79 79 79 79 79 79
88 75 74 78 80 83 90 82 90 90 85 88 92 92 96 99 99 98 98 97 95 94 86 87 92 94 95 94 86 79 78 78 78 79 78 78 89 86 83 84 78 79 79 79 79 79 79 78 78
80 76 78 83 83 81 86 83 84 84 84 84 88 94 97 97 95 94 96 97 96 92 90 79 85 91 97 97 87 89 88 88 87 87 83 89 92 90 91 85 79 79 79 79 79 79 79 79 92
81 74 82 80 81 81 80 80 84 81 79 84 84 89 93 94 92 92 94 96 97 94 88 90 88 85 92 95 90 93 91 90 90 89 87 90 93 91 93 89 88 86 80 88 84 84 86 92 96
72 80 78 80 80 78 76 81 79 81 82 89 89 90 90 89 91 92 92 94 95 95 92 81 88 91 87 91 93 95 94 93 93 92 89 91 91 89 90 93 92 89 91 91 93 95 93 92 93
74 78 78 79 79 79 80 77 77 79 85 88 89 89 88 88 90 94 94 94 93 91 93 87 76 82 90 85 89 96 95 94 95 94 91 93 91 89 91 92 94 94 96 94 92 94 93 92 92
78 76 77 78 78 79 76 76 78 80 86 84 85 86 88 88 90 91 92 92 90 91 90 91 83 76 84 87 85 93 94 94 95 94 92 92 92 90 91 91 91 93 94 95 94 93 92 92 94
76 70 75 77 79 75 78 70 72 81 84 81 83 85 86 87 89 88 91 91 93 92 90 88 87 84 80 85 85 91 95 96 94 95 92 91 90 89 90 91 91 92 92 91 90 90 90 90 93
72 72 66 78 77 77 75 63 77 84 81 79 81 83 84 86 88 90 91 91 92 92 90 88 90 88 84 83 87 90 94 95 95 95 93 90 89 90 87 90 89 92 91 91 90 90 91 90 90
72 64 67 71 79 76 73 67 77 83 80 77 79 81 83 84 86 88 90 90 92 91 89 88 86 88 85 82 82 84 88 92 95 95 93 88 89 90 88 90 90 90 90 90 91 90 89 88 87
63 63 66 65 72 74 70 69 76 80 80 78 80 81 82 83 85 88 90 90 92 91 89 87 87 85 85 80 80 81 80 90 94 93 92 87 88 87 86 89 89 88 90 91 90 87 89 86 86
67 64 61 67 73 70 68 68 72 77 78 78 79 80 81 83 87 89 89 90 90 90 88 85 84 84 86 78 76 76 77 83 90 92 90 86 87 86 84 88 87 86 87 89 86 86 84 85 85
65 62 61 67 72 68 67 66 71 75 76 78 79 80 81 83 85 86 87 88 87 87 86 85 83 83 84 86 79 79 78 78 90 90 87 86 86 85 86 87 86 85 89 85 85 83 81 84 81
64 61 61 60 67 70 65 62 68 77 79 79 81 82 83 83 83 85 86 86 87 86 86 85 85 83 82 83 81 77 79 76 78 86 85 86 86 87 86 87 87 84 88 85 81 81 80 79 80
58 68 65 63 60 53 67 51 64 71 74 76 79 80 82 83 84 85 86 85 85 87 89 87 86 84 85 83 78 76 74 75 84 87 87 86 86 86 87 86 86 85 87 81 82 82 81 78 79
59 67 63 62 59 58 60 56 63 73 68 74 75 76 79 82 83 84 85 87 88 88 88 89 87 85 84 83 79 75 76 76 78 88 83 82 84 86 87 85 83 82 84 79 77 76 77 78 78
66 62 63 63 61 49 58 58 61 64 61 72 76 78 79 80 81 84 86 87 87 90 90 88 86 84 84 82 81 76 76 74 73 85 80 83 85 84 83 82 78 80 77 76 76 73 72 71 72
63 57 44 44 49 47 59 56 61 68 65 73 73 76 78 80 81 82 83 85 86 87 88 89 88 84 84 83 81 80 77 78 74 78 83 83 83 81 76 78 76 75 72 72 71 71 70 68 66
59 57 44 35 43 48 57 50 59 71 74 74 75 76 79 78 81 81 83 84 87 86 87 88 87 84 85 83 80 82 78 76 77 76 75 79 79 78 75 72 72 72 71 70 69 68 66 62 62
57 50 59 42 47 43 53 60 69 72 70 72 72 74 75 77 78 79 81 82 83 84 85 85 85 84 85 83 81 81 78 76 77 77 73 71 76 70 72 72 70 67 65 64 63 64 63 66 68
60 64 46 46 33 37 51 48 51 59 62 68 70 72 73 76 77 78 79 80 81 81 83 83 81 82 85 85 82 82 78 74 77 74 71 70 71 67 67 65 65 64 63 60 64 64 67 67 69
54 51 53 51 46 37 40 50 62 60 64 67 70 70 73 74 76 76 77 79 81 82 83 82 82 81 82 85 82 80 80 79 74 74 70 69 67 66 67 64 64 63 61 66 67 67 67 66 65
61 55 53 38 41 46 42 44 64 67 69 70 71 72 74 74 75 77 75 75 79 81 81 82 82 81 83 85 83 80 80 75 70 68 68 67 65 65 66 62 64 65 67 66 67 67 67 65 64
MSLP
1009.48 1008.42 1007.22 1005.81 1004.41 1001.31 998.70 996.88 995.69 996.08 996.71 997.05 998.06 998.16 997.97 998.15 998.85 999.89 1001.30 1001.96 1002.33 1001.91 1003.96 1005.19 1005.76 1006.16 1006.49 1006.97 1007.40 1007.65 1008.02 1008.65 1008.79 1009.07 1009.55 1009.92 1010.20 1010.54 1010.78 1010.91 1011.06 1011.30 1011.59 1011.73 1011.86 1012.08 1012.20 1012.35 1012.48
1008.46 1007.20 1006.52 1004.38 1002.37 999.38 997.22 996.43 995.56 996.87 997.18 998.36 998.56 998.42 998.49 999.29 1000.57 1000.61 1001.27 1002.15 1002.50 1002.46 1003.86 1004.91 1006.12 1006.40 1006.72 1007.36 1007.67 1007.96 1008.25 1008.82 1009.14 1009.28 1009.67 1010.08 1010.44 1010.60 1010.98 1011.22 1011.42 1011.58 1011.76 1011.92 1012.10 1012.18 1012.34 1012.51 1012.59
1008.90 1007.09 1005.26 1002.72 1000.78 998.67 996.86 995.81 995.65 997.01 998.47 999.02 999.00 999.38 999.35 1000.36 1001.35 1002.04 1002.27 1002.42 1002.38 1003.00 1003.89 1004.91 1006.29 1006.68 1007.03 1007.52 1007.85 1008.24 1008.55 1009.11 1009.42 1009.60 1009.84 1010.21 1010.60 1010.78 1011.05 1011.31 1011.51 1011.73 1011.84 1011.99 1012.17 1012.34 1012.45 1012.50 1012.57
1006.95 1006.00 1004.82 1002.05 999.36 997.83 997.30 997.03 997.94 998.51 999.09 999.55 999.60 999.85 1000.78 1002.00 1002.22 1002.57 1002.45 1002.37 1002.44 1002.97 1003.95 1005.62 1006.51 1006.80 1007.29 1007.78 1007.89 1008.42 1008.80 1009.33 1009.69 1009.83 1010.13 1010.44 1010.82 1011.08 1011.24 1011.49 1011.59 1011.79 1011.93 1012.04 1012.21 1012.34 1012.56 1012.68 1012.66
1006.76 1004.66 1002.65 1000.70 999.34 998.26 998.05 998.90 999.85 999.68 999.50 999.40 999.87 999.95 1000.30 1001.73 1002.46 1002.55 1002.48 1001.99 1002.21 1002.51 1004.06 1005.55 1006.59 1007.10 1007.28 1007.86 1008.28 1008.32 1008.91 1009.56 1009.90 1010.06 1010.33 1010.61 1010.92 1011.29 1011.52 1011.60 1011.66 1011.71 1012.00 1012.21 1012.30 1012.44 1012.62 1012.73 1012.70
1005.36 1004.01 1001.90 999.84 998.61 998.05 998.15 999.87 1000.58 1000.29 999.89 999.91 1000.34 1000.31 1000.62 1001.45 1002.32 1002.45 1002.43 1002.33 1001.91 1002.25 1004.10 1005.48 1006.74 1007.32 1007.53 1007.95 1008.55 1008.65 1008.99 1009.35 1009.93 1010.16 1010.46 1010.74 1011.01 1011.30 1011.61 1011.70 1011.78 1011.89 1012.01 1012.25 1012.47 1012.61 1012.65 1012.73 1012.78
1005.15 1003.08 1001.56 1000.12 998.73 997.82 998.15 1000.09 1001.41 1000.89 1000.30 1000.33 1000.75 1001.23 1000.61 1001.25 1002.70 1002.61 1002.47 1002.34 1002.87 1002.69 1003.94 1005.20 1006.26 1007.30 1007.67 1008.03 1008.72 1009.02 1009.31 1009.61 1009.99 1010.27 1010.52 1010.86 1011.06 1011.31 1011.49 1011.76 1011.88 1012.05 1012.20 1012.40 1012.60 1012.73 1012.79 1012.78 1012.73
1005.12 1003.82 1002.01 1000.52 999.40 998.90 999.30 1001.36 1002.10 1002.39 1001.46 1001.29 1002.14 1001.42 1000.66 1001.67 1002.92 1002.66 1002.66 1002.42 1003.51 1003.51 1004.64 1004.70 1005.72 1006.80 1007.36 1007.90 1008.69 1009.11 1009.48 1009.82 1010.10 1010.41 1010.62 1010.97 1011.25 1011.44 1011.53 1011.77 1012.04 1012.22 1012.39 1012.57 1012.77 1012.80 1012.73 1012.69 1012.77
1005.86 1004.22 1001.94 1000.70 1000.03 1000.01 1000.38 1001.65 1002.16 1002.98 1003.14 1002.88 1002.35 1002.02 1001.87 1002.09 1002.97 1003.03 1002.54 1002.63 1003.56 1004.20 1005.19 1005.46 1005.42 1006.17 1006.55 1007.02 1008.39 1009.18 1009.53 1009.85 1010.09 1010.42 1010.79 1011.11 1010.73 1011.19 1011.58 1011.46 1011.79 1012.22 1012.48 1012.57 1012.65 1012.70 1012.57 1012.55 1012.43
1005.51 1003.55 1002.17 1002.04 1001.96 1001.74 1001.55 1002.34 1003.15 1003.12 1002.69 1002.85 1002.31 1002.33 1002.33 1002.48 1002.95 1003.15 1002.55 1002.22 1002.80 1004.25 1005.12 1005.66 1005.55 1005.59 1005.83 1006.23 1007.96 1008.42 1008.86 1009.30 1009.61 1009.84 1010.39 1010.20 1009.85 1010.45 1010.45 1011.22 1012.05 1012.36 1012.49 1012.46 1012.43 1012.40 1012.35 1012.21 1011.11
1005.08 1004.20 1003.10 1003.53 1004.14 1004.23 1004.09 1003.82 1004.03 1003.59 1002.88 1002.88 1002.53 1002.20 1002.23 1002.54 1002.95 1003.28 1003.18 1002.82 1003.01 1003.90 1005.39 1005.50 1005.72 1005.79 1005.41 1005.66 1007.24 1007.39 1008.16 1008.44 1008.94 1009.26 1009.67 1009.34 1009.42 1010.04 1010.08 1010.70 1011.42 1011.77 1012.17 1011.67 1011.84 1011.79 1011.59 1010.50 1010.01
1006.17 1004.95 1005.22 1005.10 1004.99 1005.33 1005.03 1004.70 1004.18 1003.90 1003.53 1003.16 1002.93 1003.12 1003.23 1003.25 1003.00 1002.80 1003.00 1003.06 1003.19 1003.61 1004.55 1006.14 1005.94 1005.69 1005.83 1005.69 1006.45 1006.61 1007.07 1007.58 1008.05 1008.56 1009.15 1008.67 1009.24 1009.66 1009.76 1009.70 1010.15 1010.70 1010.64 1010.42 1010.28 1010.05 1010.19 1010.42 1010.26
1006.11 1005.41 1005.55 1005.74 1005.68 1005.52 1005.33 1004.77 1004.35 1003.80 1003.72 1003.58 1003.27 1003.15 1003.24 1003.32 1003.05 1002.73 1002.80 1003.29 1003.78 1003.99 1004.10 1005.35 1006.35 1006.28 1005.73 1005.98 1006.04 1005.96 1006.27 1006.85 1007.04 1007.75 1008.63 1008.30 1008.77 1009.09 1009.39 1009.31 1009.36 1009.54 1009.54 1009.68 1010.00 1009.85 1010.04 1010.15 1010.08
1006.14 1006.14 1005.87 1005.60 1005.23 1005.10 1004.85 1004.53 1004.26 1003.57 1003.28 1003.41 1003.27 1003.02 1002.84 1002.99 1002.87 1002.79 1002.67 1002.77 1003.56 1003.93 1004.25 1004.41 1005.88 1006.35 1006.21 1005.98 1005.98 1005.72 1006.06 1006.46 1006.70 1007.07 1007.73 1008.16 1008.38 1008.62 1008.97 1009.28 1009.63 1009.53 1009.51 1009.37 1009.43 1009.65 1009.92 1009.84 1009.56
1006.75 1006.14 1005.21 1004.44 1004.13 1004.55 1004.80 1004.04 1003.45 1003.05 1002.65 1002.75 1002.84 1002.69 1002.81 1002.68 1002.77 1002.70 1002.66 1002.52 1002.49 1003.14 1003.96 1004.50 1004.80 1005.78 1006.27 1006.07 1005.82 1005.71 1005.78 1006.14 1006.43 1006.68 1007.37 1008.02 1008.43 1008.43 1008.72 1008.95 1009.23 1009.35 1009.44 1009.66 1009.87 1010.07 1009.97 1010.11 1009.65
1005.97 1005.19 1003.90 1002.38 1003.41 1003.83 1004.36 1002.77 1002.50 1001.97 1002.11 1002.32 1002.48 1002.38 1002.28 1002.19 1002.09 1002.20 1002.31 1002.47 1002.53 1002.78 1003.23 1004.17 1004.37 1004.61 1005.54 1005.98 1005.67 1005.58 1005.49 1005.79 1006.04 1006.28 1006.93 1007.93 1008.28 1008.24 1009.01 1008.85 1009.07 1009.03 1009.25 1009.55 1009.69 1009.59 1009.51 1009.53 1009.60
1004.43 1003.19 1002.68 1002.24 1002.59 1002.83 1003.30 1002.25 1002.19 1001.89 1001.84 1001.93 1001.95 1001.78 1001.64 1001.57 1001.66 1001.85 1002.02 1002.24 1002.18 1002.52 1003.04 1003.69 1004.28 1004.17 1004.80 1005.49 1005.94 1005.70 1005.47 1005.72 1005.61 1005.88 1006.49 1007.58 1008.04 1008.22 1008.71 1008.64 1008.84 1008.82 1009.16 1009.23 1009.33 1009.43 1009.76 1009.56 1009.79
1003.70 1003.75 1003.30 1002.91 1003.11 1002.65 1002.19 1001.67 1001.55 1001.24 1000.98 1000.84 1000.71 1000.67 1000.73 1000.72 1000.80 1001.10 1001.42 1001.75 1001.80 1002.24 1002.77 1003.47 1003.80 1004.11 1004.24 1005.15 1005.76 1006.03 1005.67 1005.45 1005.24 1005.71 1006.31 1007.30 1007.75 1008.24 1008.64 1008.43 1008.57 1009.10 1008.92 1008.92 1009.25 1009.57 1009.60 1010.01 1009.95
1005.05 1004.70 1004.12 1003.69 1003.26 1002.55 1001.73 1001.26 1000.96 1000.66 1000.23 1000.00 999.92 999.76 999.66 999.78 1000.08 1000.42 1000.83 1001.20 1001.35 1001.74 1002.34 1003.19 1003.45 1003.63 1003.71 1004.70 1005.30 1005.76 1005.68 1005.08 1005.04 1005.62 1006.22 1007.14 1007.36 1007.76 1008.60 1008.40 1008.83 1009.09 1008.65 1008.75 1009.58 1009.92 1010.14 1010.03 1010.60
1005.44 1004.78 1004.02 1003.28 1002.57 1002.46 1001.65 1000.87 1000.49 999.75 999.07 998.95 998.85 998.67 998.58 998.73 999.12 999.66 1000.20 1000.71 1001.13 1001.43 1002.01 1002.85 1003.26 1003.44 1003.75 1003.58 1004.71 1005.05 1005.16 1005.18 1004.91 1005.50 1006.36 1006.87 1007.18 1007.68 1008.17 1008.04 1008.49 1008.73 1008.38 1009.19 1009.62 1010.18 1010.17 1010.49 1011.36
1005.05 1004.46 1003.73 1003.30 1002.73 1002.32 1001.94 1000.05 998.87 997.06 997.28 998.07 997.99 997.98 998.00 998.04 998.23 998.73 999.43 1000.08 1000.64 1000.97 1001.46 1002.14 1002.52 1002.97 1003.52 1003.77 1003.90 1004.79 1005.15 1004.95 1004.81 1005.15 1006.12 1006.52 1006.89 1007.20 1007.52 1007.81 1008.03 1008.46 1008.29 1009.15 1010.07 1010.40 1010.51 1010.66 1011.20
1004.88 1004.70 1004.18 1003.66 1003.41 1002.00 1001.15 999.15 998.47 997.52 996.77 997.03 997.16 997.41 997.42 997.68 997.94 998.46 998.76 999.36 1000.11 1000.34 1000.78 1001.34 1001.92 1002.26 1002.70 1003.24 1003.80 1004.36 1004.57 1004.51 1004.30 1004.37 1005.21 1006.10 1006.65 1006.89 1007.22 1007.76 1008.00 1008.50 1008.65 1009.52 1010.19 1010.51 1010.77 1011.24 1011.11
1005.83 1005.55 1004.99 1004.53 1003.54 1002.43 1001.12 999.56 997.31 996.14 996.30 995.98 997.21 997.82 997.95 997.70 997.90 998.09 998.49 998.79 999.45 1000.04 1000.36 1000.67 1001.28 1001.86 1002.32 1002.76 1003.55 1003.96 1004.12 1004.21 1003.97 1003.81 1004.54 1005.76 1006.47 1006.71 1007.07 1007.90 1008.42 1008.76 1009.16 1010.20 1010.80 1011.04 1011.19 1011.74 1011.82
1006.40 1005.99 1004.82 1003.72 1002.58 1001.32 999.89 998.57 996.40 995.83 997.71 996.33 996.78 997.17 997.60 998.14 998.31 998.30 998.32 998.67 999.13 999.35 999.82 1000.20 1000.69 1001.41 1001.93 1002.66 1002.91 1003.53 1003.90 1003.87 1003.80 1003.32 1004.59 1005.60 1006.15 1006.70 1007.49 1008.08 1008.76 1009.22 1010.02 1011.07 1011.40 1011.88 1012.34 1012.56 1012.54
1006.19 1005.79 1004.82 1003.43 1000.34 1000.24 999.14 998.33 996.99 996.47 998.37 997.20 997.25 997.50 997.95 998.19 998.45 998.56 998.49 998.65 998.77 998.96 999.21 999.57 1000.04 1000.84 1001.46 1002.07 1002.50 1002.85 1003.55 1003.62 1003.79 1003.80 1004.40 1005.07 1005.76 1006.69 1008.22 1008.74 1009.19 1010.14 1010.62 1011.43 1011.96 1012.20 1013.15 1013.67 1013.64
1006.46 1006.33 1005.92 1004.57 1002.65 1000.89 1000.62 998.80 997.09 997.49 997.55 997.89 998.12 998.22 998.21 998.47 998.59 998.57 998.64 998.62 998.48 998.91 999.27 999.38 999.74 1000.34 1000.75 1001.52 1002.34 1002.38 1003.10 1003.54 1003.71 1003.90 1004.19 1004.75 1005.95 1007.34 1008.71 1009.73 1010.17 1010.47 1010.99 1011.79 1012.92 1012.99 1014.12 1014.68 1014.31
1005.92 1006.12 1006.18 1006.44 1005.73 1003.53 1001.02 998.58 997.18 997.15 997.77 998.35 998.53 998.49 998.54 998.80 999.02 999.19 999.37 999.52 999.57 999.41 999.50 999.74 999.98 1000.39 1000.38 1000.95 1001.82 1002.03 1002.75 1003.38 1003.65 1004.08 1004.66 1005.26 1006.42 1008.30 1009.28 1009.93 1009.96 1010.86 1012.10 1012.67 1013.15 1014.27 1014.78 1014.52 1014.31
1006.79 1006.22 1006.64 1006.72 1005.67 1003.04 1000.20 999.48 998.66 998.50 998.95 998.68 998.46 998.71 999.29 999.61 999.66 999.77 1000.02 1000.09 1000.39 1000.67 1000.59 1000.45 1000.86 1000.46 1000.24 1000.47 1001.34 1001.66 1002.52 1002.91 1003.38 1004.08 1004.93 1005.91 1006.16 1008.97 1009.77 1009.28 1010.79 1011.88 1012.69 1013.58 1014.26 1014.79 1014.79 1014.55 1014.44
1006.37 1006.50 1006.61 1006.66 1006.40 1004.78 1002.34 1000.05 1000.15 999.95 1000.02 999.50 999.21 999.58 999.81 1000.00 1000.03 1000.38 1000.69 1000.75 1000.59 1000.71 1000.45 1000.27 1000.41 1000.62 1000.46 1000.22 1001.00 1001.55 1001.69 1002.16 1002.94 1003.64 1004.75 1005.99 1007.55 1009.00 1008.86 1009.38 1010.23 1012.79 1013.75 1014.16 1014.36 1014.90 1015.32 1015.23 1014.63
1005.82 1005.90 1006.56 1007.13 1006.10 1005.22 1004.20 1001.82 1001.02 1000.36 999.75 999.51 999.72 1000.00 1000.14 1000.69 1000.96 1000.82 1001.23 1001.44 1000.89 1000.65 1000.40 1000.09 1000.07 1000.31 1000.17 1000.04 1000.53 1001.30 1001.52 1002.41 1002.96 1003.36 1005.14 1006.52 1008.13 1007.87 1008.40 1009.99 1011.16 1012.89 1014.06 1014.39 1014.64 1015.13 1015.81 1015.06 1014.72
Wind_Speed
16 15 10 7 9 9 17 18 14 2 6 2 5 8 15 13 15 7 12 10 10 9 13 13 12 13 13 13 14 15 16 14 15 15 14 13 13 13 12 12 12 12 11 11 9 8 7 6 5
14 8 8 9 10 15 14 18 9 8 9 8 7 7 9 14 14 6 11 16 5 3 15 14 11 13 13 13 13 14 15 14 14 15 15 14 13 13 12 12 11 11 11 10 8 8 7 5 4
13 11 11 8 15 16 16 11 1 6 4 7 5 3 7 7 13 8 12 11 5 7 13 14 13 13 14 13 13 13 14 13 14 14 15 14 13 13 12 12 11 11 10 9 8 7 6 5 3
7 7 9 12 19 16 17 6 5 6 8 4 5 9 9 7 7 9 11 7 0 9 12 20 12 14 14 13 15 14 14 14 14 14 14 13 12 11 11 11 10 10 10 9 8 7 5 4 2
9 9 13 17 21 21 1 7 3 10 10 5 4 12 3 8 7 8 9 9 1 9 17 17 14 13 15 14 14 16 15 14 14 14 14 13 12 11 10 11 10 11 9 8 7 6 4 3 2
9 8 15 17 22 19 5 4 8 12 10 6 6 12 4 8 9 11 8 9 2 9 19 17 15 12 14 14 12 14 15 15 15 14 14 13 12 12 11 10 9 9 9 7 5 4 3 2 2
14 13 17 22 21 18 7 8 10 14 12 7 10 7 5 7 10 10 9 6 9 14 16 15 16 13 14 14 13 13 14 14 14 14 14 14 13 13 12 10 9 8 7 5 4 3 2 2 4
10 13 21 19 16 18 5 7 6 8 13 9 3 9 11 11 8 10 7 5 3 9 9 10 16 16 15 14 14 14 14 13 14 13 14 13 12 11 11 10 8 7 6 5 4 3 4 5 7
9 11 15 19 17 14 6 7 9 5 11 14 16 10 13 11 6 7 4 4 12 2 9 7 15 16 16 16 14 14 15 15 14 14 13 12 11 11 12 6 14 9 7 6 6 6 6 7 11
11 12 17 11 15 12 15 10 11 14 13 16 16 13 13 7 5 7 9 6 4 3 10 4 4 14 17 14 15 14 13 11 11 12 13 11 10 10 11 12 10 7 6 7 8 9 10 9 10
10 13 13 10 8 8 16 17 15 17 18 15 16 14 10 11 8 9 9 5 11 9 4 9 8 7 11 12 11 9 8 9 9 13 13 11 8 8 7 8 7 7 10 8 10 10 9 11 5
13 16 10 13 4 11 16 18 20 19 18 18 15 13 14 15 14 13 8 9 4 4 12 7 10 12 8 6 11 12 10 10 9 11 13 8 6 8 7 6 9 8 8 9 7 5 3 4 5
16 15 6 11 14 15 18 20 21 23 20 19 19 17 17 16 17 14 10 8 8 6 6 14 7 10 11 5 8 11 11 11 11 12 13 9 9 8 9 7 6 7 7 6 6 5 3 4 6
14 12 15 16 18 16 16 18 18 22 18 17 19 20 17 17 17 16 15 11 10 10 8 9 15 10 14 10 10 9 9 11 10 11 12 12 9 8 8 7 7 5 5 6 3 5 3 5 6
11 18 19 18 14 11 13 21 21 23 21 16 20 14 17 18 18 18 17 17 12 10 10 10 14 16 13 15 9 9 11 11 11 10 11 12 10 9 8 8 7 7 5 3 2 3 6 6 3
20 19 18 18 9 14 13 20 19 16 8 16 16 16 16 18 19 17 17 17 16 13 12 12 12 15 18 15 11 10 10 11 10 10 11 13 12 10 9 7 7 7 6 7 7 6 5 3 3
18 16 17 14 15 10 18 23 21 17 12 16 17 18 18 17 19 19 17 17 16 11 11 12 13 15 17 16 11 12 9 11 10 10 10 13 12 11 9 8 8 5 6 6 5 3 4 4 4
20 21 21 21 20 21 20 24 23 21 21 21 21 20 19 18 19 17 17 16 16 14 11 11 11 14 15 12 11 9 7 10 10 10 10 14 11 12 9 8 7 7 8 7 5 3 3 5 6
21 21 23 22 22 24 22 23 24 22 22 22 21 22 21 20 18 16 16 15 16 13 11 10 12 12 10 10 10 10 11 11 10 10 11 14 12 12 10 7 6 8 7 3 5 4 5 5 3
21 23 25 26 24 17 21 26 27 27 24 22 21 21 21 20 18 17 17 16 16 14 11 11 12 12 11 10 9 10 11 11 11 11 11 14 14 14 11 10 10 9 6 5 5 2 5 1 4
21 23 24 23 22 22 22 30 27 16 6 8 13 15 17 18 18 16 16 17 16 16 12 11 11 13 13 15 9 10 10 9 7 12 12 13 15 14 12 9 8 7 5 8 4 3 1 4 3
22 20 22 22 19 19 20 19 21 21 16 9 9 10 13 14 15 14 15 17 17 16 15 13 11 11 12 14 10 15 10 11 11 12 12 12 14 14 12 9 8 6 5 8 5 3 2 1 1
19 17 17 20 21 22 22 16 17 14 14 12 5 3 9 11 9 13 15 15 17 17 15 11 10 10 12 11 14 13 14 11 10 11 14 13 12 13 14 12 10 8 6 7 7 7 6 5 3
10 16 21 22 20 19 23 22 17 8 4 2 10 3 5 6 6 10 12 14 15 15 15 14 11 10 12 13 15 16 16 15 12 13 12 12 12 10 12 11 9 8 10 9 8 9 9 6 4
10 16 11 10 12 15 12 6 11 3 9 8 9 8 6 7 7 7 8 12 13 16 16 13 13 12 12 12 16 17 18 17 14 13 13 14 12 10 11 12 11 9 12 10 7 8 9 6 4
20 15 10 15 13 20 12 10 3 2 1 3 5 8 10 4 10 3 6 7 8 14 14 13 13 11 14 13 16 15 16 10 11 14 10 8 10 11 11 12 13 14 13 11 10 9 7 4 5
6 8 7 11 20 18 17 20 18 6 8 7 0 6 3 3 3 4 3 5 7 10 7 7 10 12 13 13 13 13 13 16 13 13 11 9 10 11 15 14 15 14 11 11 9 8 5 5 5
15 14 7 5 7 13 13 5 3 2 2 4 4 0 1 3 4 5 5 6 5 6 9 8 10 13 14 12 12 12 15 13 15 15 15 13 17 15 13 15 15 12 12 10 10 7 5 7 6
8 12 13 11 11 9 14 7 2 3 13 9 6 2 7 6 7 7 9 9 8 9 11 9 7 11 14 11 10 12 14 15 14 14 14 16 16 16 16 17 17 11 9 9 8 8 7 8 9
19 19 16 8 15 13 13 15 20 15 10 6 9 6 10 9 13 13 12 15 14 12 11 10 7 7 12 14 11 12 12 9 12 16 16 17 18 15 19 17 17 13 12 10 8 7 7 8 11
Wind_Direction
275 234 236 247 243 231 253 244 257 45 212 91 342 284 359 24 11 40 95 34 6 115 139 153 135 143 139 146 153 146 144 151 148 144 144 147 147 141 136 131 129 125 117 114 115 110 102 91 87
292 246 235 265 247 251 242 233 230 237 55 6 275 266 250 103 31 66 3 358 60 122 144 165 141 142 137 149 148 142 141 149 149 146 147 149 146 143 137 131 127 124 119 118 118 115 107 102 98
253 253 259 229 233 253 268 302 56 159 46 297 284 16 5 31 40 7 360 344 97 132 142 147 145 140 141 148 140 140 140 147 151 147 147 147 147 144 141 139 131 130 127 126 125 118 120 125 124
236 207 249 255 255 248 255 353 10 330 242 233 294 266 124 67 6 0 347 7 110 158 151 130 138 141 141 149 142 144 143 149 153 148 149 145 144 141 141 140 140 140 138 135 134 134 136 135 130
234 262 246 243 247 259 147 329 12 271 269 254 199 261 141 100 15 360 0 328 204 163 118 142 135 145 142 148 151 144 146 150 151 150 147 144 142 143 146 146 148 146 146 147 147 140 137 144 177
240 252 247 248 245 244 178 145 282 265 258 263 247 261 289 96 34 342 13 345 355 165 134 134 138 148 145 145 151 146 150 149 154 151 149 145 148 149 150 152 152 152 154 156 150 140 146 175 257
255 254 253 267 272 273 210 117 255 252 246 237 11 283 249 98 31 323 1 62 310 68 140 149 163 160 144 139 147 148 149 150 151 151 148 150 152 152 151 152 148 147 153 154 157 159 171 227 253
293 270 270 262 261 268 145 139 255 283 275 330 343 253 236 46 14 321 355 36 40 115 140 163 166 172 176 159 147 147 150 146 148 148 147 149 147 150 149 143 151 156 158 163 173 190 217 245 262
251 259 256 260 251 239 170 188 271 204 287 284 273 283 299 329 331 322 251 217 103 121 118 259 166 175 188 165 154 148 150 148 144 145 147 152 182 177 159 173 145 166 173 180 195 218 238 257 252
257 256 266 12 345 330 307 333 289 291 264 265 254 256 256 254 277 294 306 314 110 192 147 232 174 184 193 162 153 173 162 170 177 175 171 192 180 189 183 135 147 166 187 204 216 224 238 241 258
274 267 321 327 305 311 293 288 282 270 267 260 271 279 288 299 284 276 284 283 320 127 204 169 229 247 209 167 168 173 169 165 181 186 181 209 166 175 185 155 177 192 199 216 204 209 227 230 295
280 268 292 286 278 264 273 285 280 276 274 286 291 283 273 277 267 259 256 281 302 228 166 203 224 215 252 148 175 181 176 169 182 189 190 186 179 165 205 192 189 207 177 223 201 252 238 313 267
257 276 273 267 270 264 274 274 280 272 273 275 274 256 254 260 266 265 253 239 265 245 258 173 202 244 220 192 204 190 186 180 189 178 191 181 191 173 192 198 216 186 223 175 244 243 259 235 232
316 298 282 278 269 263 267 273 274 273 263 260 261 260 259 260 262 266 265 236 219 255 230 195 189 214 231 219 214 195 196 182 194 182 181 199 199 170 192 199 212 218 236 242 220 215 257 243 260
280 281 274 259 251 273 274 275 263 261 254 265 264 257 257 256 254 258 261 265 249 210 224 226 198 199 222 224 213 205 191 190 197 187 174 201 205 159 220 198 204 207 211 251 236 272 210 248 251
260 255 270 278 195 232 265 274 279 292 230 256 256 253 256 256 257 257 254 250 252 247 207 216 235 200 206 215 221 206 205 205 196 191 175 193 194 174 214 190 200 204 210 197 217 213 238 275 285
255 252 269 289 300 287 251 276 282 282 260 263 260 266 267 256 248 247 250 258 251 233 227 215 220 226 209 206 215 225 207 218 195 194 176 185 187 180 196 198 193 179 216 205 231 215 270 266 257
312 307 302 296 297 292 285 280 281 272 262 261 263 266 259 256 248 244 241 247 239 222 216 218 227 229 208 204 210 220 239 210 199 192 182 174 183 184 207 194 193 184 222 206 220 242 193 311 333
291 283 284 284 284 277 276 277 277 277 272 264 260 261 256 250 248 241 237 241 233 226 206 219 219 232 223 205 207 209 209 214 197 194 179 174 180 175 198 191 188 208 229 241 155 202 222 275 332
286 284 278 275 278 292 296 293 287 277 264 258 259 258 255 252 239 234 232 224 233 236 204 218 220 222 235 211 206 211 208 211 196 187 172 184 176 175 186 203 181 196 186 183 177 211 321 151 358
280 278 281 291 301 299 280 265 260 251 217 255 248 257 257 258 253 235 220 221 228 228 218 212 222 212 215 239 198 212 221 230 180 185 180 186 177 176 181 207 190 159 251 159 133 203 315 317 87
283 292 300 301 298 280 298 298 292 279 275 251 259 257 255 250 245 249 238 219 221 231 226 204 221 210 222 216 221 209 214 202 203 187 181 173 181 175 190 181 143 165 200 106 129 107 62 317 217
295 295 295 289 274 281 273 264 272 253 227 196 141 277 293 274 254 258 233 239 214 225 235 223 206 215 226 213 211 217 209 205 205 191 160 175 180 178 170 175 150 138 126 99 126 117 83 84 6
280 279 267 263 260 257 263 250 255 263 92 154 190 249 288 274 329 287 252 229 237 227 225 229 202 212 219 210 219 217 212 214 225 181 156 175 176 168 168 151 128 127 113 120 97 91 83 88 86
244 285 314 284 254 231 359 312 268 341 238 332 323 317 284 299 250 268 237 241 234 231 233 232 216 215 222 211 230 213 222 219 211 180 173 173 164 155 133 134 125 115 110 109 102 95 85 66 60
288 279 268 292 309 317 310 265 117 332 251 289 314 293 272 238 273 281 326 309 251 217 238 242 243 226 218 206 231 222 219 227 204 197 166 159 142 140 130 120 122 120 101 101 103 87 85 74 71
295 260 286 264 263 267 272 264 254 201 179 160 299 336 26 351 346 328 348 319 312 329 316 281 279 245 237 201 224 232 212 218 203 183 155 150 118 125 136 131 111 94 101 93 96 99 121 134 83
265 278 280 253 270 282 281 256 253 30 36 197 108 155 153 253 301 350 348 333 341 309 288 284 296 264 252 214 209 229 220 217 208 183 160 149 130 138 141 109 100 98 94 92 112 141 121 95 82
225 250 254 286 256 275 289 287 241 59 330 298 307 42 311 280 312 324 323 299 301 312 302 265 220 257 257 238 212 226 226 218 206 174 152 135 135 139 123 104 102 105 111 116 106 104 114 108 87
263 258 254 250 267 263 278 273 293 287 239 282 223 304 325 307 309 317 309 309 301 294 296 294 269 263 256 241 215 223 224 213 189 154 145 138 143 125 123 119 123 122 126 130 115 106 117 94 78